Regional Weather Roundup
Issued by NWS Newport/Morehead, NC

Current Version | Previous Version | Graphics & Text | Print | Product List | Glossary On
Versions: 1 2 3 4 5 6 7 8 9 10 11 12 13 14 15 16 17 18 19 20 21 22 23 24 25 26 27 28 29 30 31 32 33 34 35 36 37 38 39 40 41 42 43 44 45 46 47 48 49 50
000 ASUS42 KMHX 300325 RWRMHX WEATHER ROUNDUP FOR EASTERN NORTH CAROLINA NATIONAL WEATHER SERVICE NEWPORT/MOREHEAD CITY NC 1100 PM EDT MON MAY 29 2017 NOTE: "FAIR" INDICATES FEW OR NO CLOUDS BELOW 12,000 FEET WITH NO SIGNIFICANT WEATHER AND/OR OBSTRUCTIONS TO VISIBILITY NCZ015>017-031-032-045>047-102-103-300400- NORTH COAST CITY SKY/WX TMP DP RH WIND PRES REMARKS EDENTON CLEAR 74 71 89 CALM 30.02S ELIZABETH CITY PTCLDY 73 70 90 E9 30.03S KITTY HAWK CLEAR 69 68 97 CALM 30.03S MANTEO CLEAR 70 66 88 SE10 30.04S $$ NCZ045>047-081-094-103-104-300400- CENTRAL COAST CITY SKY/WX TMP DP RH WIND PRES REMARKS FRISCO CLEAR 74 70 87 E6 30.04S $$ NCZ095-097-098-100-101-300400- SOUTHERN COAST CITY SKY/WX TMP DP RH WIND PRES REMARKS BEAUFORT PTCLDY 77 74 90 S7 30.03R CEDAR ISLAND NOT AVBL JACKSONVILLE MOCLDY 77 72 84 SW6 30.02R PINEY ISLAND CLEAR N/A N/A N/A S6 30.02R WILMINGTON CLOUDY 77 69 76 SW8 30.03R $$ NCZ011>013-027>030-043-044-078>080-089-090>093-098-300400- COASTAL PLAIN CITY SKY/WX TMP DP RH WIND PRES REMARKS AHOSKIE NOT AVBL CLINTON CLOUDY 77 70 79 NW14G32 30.06R ELIZABETHTOWN CLOUDY 78 72 82 S7 30.02R GOLDSBORO CLOUDY 77 73 86 E3 29.99S GREENVILLE CLOUDY 73 72 94 CALM 30.03S HAVELOCK NOT AVBL KENANSVILLE CLOUDY 75 70 83 CALM 30.01S KINSTON MOCLDY 77 69 77 CALM 30.02R NEW BERN CLOUDY 75 68 78 CALM 30.03R RICHLANDS PTCLDY 74 71 91 S5 30.03R ROCKY MOUNT CLOUDY 75 72 90 CALM 30.02R WASHINGTON CLOUDY 77 68 72 S5 30.01S WHITEVILLE LGT RAIN 77 72 84 S3 30.02R $$ AMZ130-135-150-152-154-156-158-170-250-252-270-ANZ085-086-088-633-658-670-300400- MARINE OBSERVATIONS STATION/POSITION TIME TEMP WIND PRES WAVE SWELL AIR SEA DIR/SP/G HT/PER HT/PER (UTC) (F) (DEG/KT/KT) (MB) (FT/S) (FT/S) CHESAPEAKE LIGHT NOT AVBL 64 E VA BEACH 0250 64 64 130/ 6/ 6 1018.7 3/ 6 3/ 6 DUCK 0300 68 70 110/ 16/ 19 1016.7 2 E DUCK 0300 69 N/A 3/ 3 OREGON INLET 0300 70 75 90/ 7/ 11 1017.0 13E OREGON INLT 0248 67 N/A 2/ 6 2/ 6 HATTERAS CG 0300 75 78 110/ 4/ 5 1017.0 DIAMOND BUOY 0250 78 77 160/ 4/ 4 1017.1 2/10 2/10 CAPE LOOKOUT 0300 76 180/ 6/ 6 1016.6 BEAUFORT LAB 0300 77 76 200/ 7/ 9 1016.1 30 SE NEW RVR IN 0308 78 78 240/ 12/ 16 1016.9 30 SE NEW RVR IN 0313 78 N/A 3/ 6 27 SE WRIGHTSVLE 0308 77 77 210/ 10/ 16 1016.5 5 SE WRIGHTSVLE 0308 77 76 220/ 8/ 14 1016.8 225 S CAPE HAT 0250 78 78 230/ 6/ 8 1018.8 3/ 6 3/ 6 41 SE CHARLESTON 0310 78 76 200/ 8/ 10 1016.9 $$

USA.gov is the U.S. government's official web portal to all federal, state and local government web resources and services.